Home > Weather > Tianjin > Past weeks

Flag for China Weather for the Past 2 Weeks in Tianjin, Tianjin Municipality, China

Now
21 °F

Clear.


Feels Like: 16 °F
Forecast: 21 / 40 °F
Wind: 3 mph from North

Location: Tianjin / Zhangguizhu

Current Time: Feb 6, 2016 at 6:51:01 AM

Latest Report: Feb 6, 2016 at 6:00 AM


Visibility: 10 mi

Pressure: 30.42 "Hg

Humidity: 45%

Dew point: 3 °F

Location of TianjinLocation

Historic Weather in Tianjin — Graph

°F

Tianjin Temperature Yesterday

Maximum temperature yesterday: 37 °F (at 1:00 PM)
Minimum temperature yesterday: 23 °F (at 4:00 AM)
Average temperature yesterday: 32 °F

High & Low Weather Summary for the Past Weeks

 TemperatureHumidityPressure
High45 °F (Feb 3, 1:30 PM)93% (Jan 22, 5:00 AM)30.89 "Hg (Jan 22, 5:00 AM)
Low1 °F (Jan 23, 4:30 AM)12% (Feb 4, 2:30 PM)30.30 "Hg (Jan 27, 3:00 PM)
Average25 °F37%30.51 "Hg
* Reported Jan 22 5:00 AM — Feb 6 5:30 AM, Tianjin, Weather by CustomWeather, © 2016

Note: Actual official high and low records may vary slightly from our data, if they occured in-between our weather recording intervals... More about our weather records

Advertising

Tianjin Weather History for the Previous 24 Hours

 ConditionsComfort  
Time TempWeatherWind HumidityBarometerVisibility
5:30 AM
Sat, Feb 6
23 °FClear.3 mph46%30.42 "Hg10 mi
4:30 AM25 °FClear.6 mph42%30.42 "Hg10 mi
4:00 AM25 °FClear.3 mph42%30.45 "Hg10 mi
3:30 AM25 °FClear.3 mph42%30.45 "Hg10 mi
3:00 AM25 °FClear.6 mph42%30.45 "Hg10 mi
2:30 AM27 °FClear.10 mph39%30.45 "Hg10 mi
2:00 AM28 °FClear.13 mph37%30.45 "Hg10 mi
1:30 AM28 °FClear.10 mph37%30.45 "Hg10 mi
1:00 AM27 °FClear.15 mph39%30.45 "Hg10 mi
12:30 AM28 °FClear.10 mph37%30.45 "Hg10 mi
12:00 AM28 °FClear.13 mph37%30.45 "Hg10 mi
11:30 PM
Fri, Feb 5
30 °FClear.13 mph34%30.45 "Hg10 mi
11:00 PM30 °FClear.15 mph34%30.45 "Hg10 mi
10:30 PM30 °FClear.13 mph34%30.45 "Hg10 mi
10:00 PM30 °FClear.8 mph34%30.45 "Hg10 mi
9:30 PM34 °FClear.10 mph25%30.42 "Hg10 mi
9:00 PM34 °FClear.10 mph25%30.42 "Hg10 mi
8:30 PM34 °FClear.10 mph23%30.42 "Hg10 mi
8:00 PM34 °FClear.8 mph23%30.42 "Hg10 mi
7:30 PM34 °FClear.10 mph23%30.42 "Hg10 mi
7:00 PM34 °FClear.8 mph23%30.42 "Hg10 mi
6:30 PM34 °FClear.10 mph21%30.39 "Hg10 mi
6:00 PM34 °FClear.13 mph21%30.39 "Hg10 mi
5:30 PM36 °FSunny.15 mph20%30.39 "Hg10 mi
5:00 PM36 °FSunny.20 mph20%30.39 "Hg10 mi
4:30 PM37 °FSunny.17 mph18%30.36 "Hg10 mi
4:00 PM37 °FSunny.20 mph17%30.36 "Hg10 mi
3:30 PM37 °FSunny.20 mph17%30.36 "Hg10 mi
3:00 PM37 °FSunny.20 mph17%30.36 "Hg10 mi
2:30 PM37 °FSunny.22 mph15%30.39 "Hg10 mi
2:00 PM37 °FSunny.20 mph15%30.39 "Hg10 mi
1:30 PM37 °FSunny.22 mph15%30.39 "Hg10 mi
1:00 PM37 °FSunny.22 mph15%30.39 "Hg10 mi
12:30 PM36 °FSunny.20 mph16%30.42 "Hg10 mi
12:00 PM36 °FSunny.22 mph16%30.42 "Hg10 mi
11:30 AM36 °FSunny.20 mph18%30.42 "Hg10 mi
10:30 AM34 °FSunny.24 mph19%30.42 "Hg10 mi
10:00 AM32 °FSunny.24 mph21%30.42 "Hg10 mi
9:30 AM32 °FSunny.22 mph25%30.42 "Hg10 mi
9:00 AM30 °FSunny.22 mph29%30.42 "Hg10 mi
8:30 AM28 °FSunny.17 mph31%30.42 "Hg10 mi
8:00 AM28 °FSunny.20 mph31%30.42 "Hg10 mi
7:30 AM28 °FSunny.20 mph31%30.39 "Hg10 mi
6:30 AM25 °FClear.13 mph36%30.42 "Hg10 mi
6:00 AM23 °FClear.10 mph39%30.39 "Hg10 mi
Weather by CustomWeather, © 2016

See weather overviewHow to use our weather pages